Regional Weather Roundup
Issued by NWS

Home | Current Version | Previous Version | Text Only | Print | Product List | Glossary On
Versions: 1 2 3 4 5 6 7 8 9 10 11 12 13 14 15 16 17 18 19 20 21 22 23 24 25 26 27 28 29 30 31 32 33 34 35 36 37 38 39 40 41 42 43 44 45 46 47 48 49 50
000
ASUS44 KFWD 181001
RWRTX
NORTH TEXAS HOURLY WEATHER ROUNDUP
NATIONAL WEATHER SERVICE FORT WORTH TX
400 AM CST MON DEC 18 2017

NOTE: "FAIR" INDICATES FEW OR NO CLOUDS BELOW 12,000 FEET WITH NO
SIGNIFICANT WEATHER AND/OR OBSTRUCTIONS TO VISIBILITY.

TXZ118-119-181100-
DALLAS/FORT WORTH METROPLEX

CITY           SKY/WX    TMP DP  RH WIND       PRES   REMARKS
DFW AIRPORT    CLOUDY    50  48  93 CALM      30.13F FOG
DALLAS LOVE    CLOUDY    49  47  93 NE5       30.14F FOG
FTW MEACHAM    CLOUDY    48  48 100 SE3       30.13F FOG
DAL-EXECUTIVE  FOG       46  46 100 CALM      30.14S VSB 1/2
FTW-ALLIANCE   DRIZZLE   47  47 100 S5        30.14S FOG
FTW-NAS-JRB    CLOUDY    48  46  93 E5        30.14F FOG
FTW-SPINKS     FOG       47  46  97 SE3       30.15F VSB 1/2
ARLINGTON      CLOUDY    47  47 100 CALM      30.14S FOG
GRAND PRAIRIE  CLOUDY    47  47 100 CALM      30.15F
ADDISON        CLOUDY    48  47  95 CALM      30.16F FOG
MESQUITE       CLOUDY    47  47  98 CALM      30.16S
LANCASTER      FOG       47  46  98 CALM      30.17R VSB 3/4
$$

TXZ091>094-102>105-117-120-121-131>134-181100-
NORTH CENTRAL TEXAS

CITY           SKY/WX    TMP DP  RH WIND       PRES   REMARKS
SHRMAN/DENISON NOT AVBL
BOWIE          FOG       44  44 100 CALM      30.14S VSB 1/4
BRIDGEPORT     FOG       46  46 100 SE5       30.15F VSB 3/4
DECATUR        FOG       46  46  99 SE3       30.12F VSB<1/4
DENTON         CLOUDY    47  47 100 SE6       30.15S FOG
MCKINNEY       CLOUDY    47  47 100 E5        30.15F FOG
BONHAM         CLOUDY    45  44  97 CALM      30.17S FOG
ROCKWALL       CLOUDY    47  47 100 CALM      30.16S FOG
TERRELL        CLOUDY    48  47  96 NE3       30.16S FOG
WAXAHACHIE     FOG       46  46 100 CALM      30.16R VSB 3/4
GRANBURY       FOG       47  46  95 CALM      30.13F VSB 1/2
$$

TXZ083>090-098>101-113>116-127>130-139>142-154-155-181100-
WESTERN NORTH TEXAS

CITY           SKY/WX    TMP DP  RH WIND       PRES   REMARKS
WICHITA FALLS  FOG       34  34 100 CALM      30.14R VSB<1/4
WF-KICKAPOO    FOG       37  36  99 CALM      30.16R VSB<1/4
VERNON         CLOUDY    32  29  90 N5        30.14S VSB 1/4 WCI  27
ABILENE        CLOUDY    33  32  96 S6        30.10R WCI  28
ABILENE-DYESS  CLOUDY    31  27  86 CALM      30.09S
BRECKENRIDGE   FOG       38  38  99 SE3       30.11S VSB 1/4
CISCO          CLOUDY    39  36  87 SE5       30.11S WCI  36
RANGER         FOG       42  42 100 E3        30.12S VSB<1/4
MINERAL WELLS  FOG       45  45 100 E6        30.11F VSB 1/4
STEPHENVILLE   CLOUDY    46  44  95 CALM      30.14S VSB 1/4
COMANCHE       FOG       44  44 100 CALM      30.11S VSB 1/4
COLEMAN        FOG       42  41  97 CALM      30.10S VSB<1/4
$$

TXZ143>147-156>162-174-175-181100-
CENTRAL TEXAS

CITY           SKY/WX    TMP DP  RH WIND       PRES   REMARKS
WACO           CLOUDY    48  48 100 SE5       30.14S FOG
WACO-MCGREGOR  CLOUDY    48  48 100 CALM      30.14S FOG
HILLSBORO      FOG       47  47 100 S3        30.14S VSB 1/2
CORSICANA      FOG       48  48 100 SE3       30.16S VSB 1/4
MEXIA          FOG       48  47  97 CALM      30.13F VSB 1/4
HEARNE         CLOUDY    49  49 100 CALM      30.15S FOG
CAMERON        FOG       50  49  98 CALM      30.14R VSB 1/2
TEMPLE         FOG       48  48 100 S6        30.13S VSB 1/2
KILLEEN        FOG       46  46 100 S3        30.11S VSB 1
KILLEEN-SKYLRK FOG       47  47 100 S3        30.13S VSB 1/2
FORT HOOD      FOG       46  46 100 CALM      30.09S VSB 3/8
GATESVILLE     CLOUDY    46  46 100 CALM      30.15S FOG
HAMILTON       FOG       46  46 100 S7        30.13R VSB 1/4
LAMPASAS       FOG       46  46  99 CALM      30.10F VSB 3/4
$$

TXZ095>097-106>112-122>126-135>138-148>153-164>167-181100-
EAST TEXAS

CITY           SKY/WX    TMP DP  RH WIND       PRES   REMARKS
PARIS          CLOUDY    47  45  93 CALM      30.18R
SULPHUR SPRNGS CLOUDY    49  49  98 CALM      30.19S FOG
MOUNT PLEASANT CLOUDY    47  47 100 CALM      30.19S
GILMER         FOG       47  47 100 CALM      30.17R VSB 1
MINEOLA        CLOUDY    48  48 100 CALM      30.17R FOG
TYLER          FOG       48  48 100 CALM      30.15S VSB 1/4
LONGVIEW       FOG       49  49 100 E3        30.16R VSB 1
MARSHALL       CLOUDY    47  46  94 CALM      30.19R VSB 1/2
ATHENS         FOG       45  45 100 CALM      30.14S VSB 1/4
PALESTINE      CLOUDY    49  49 100 CALM      30.17S FOG
JACKSONVILLE   FOG       47  47 100 CALM      30.16S VSB 3/4
CENTER         FOG       47  46  96 CALM      30.18R VSB 1
NACOGDOCHES    FOG       50  50 100 CALM      30.16R VSB 1/2
LUFKIN         CLOUDY    50  50 100 CALM      30.14S FOG
$$

SUPPLEMENTAL OBSERVATIONS (NWS FORT WORTH AREA)

CITY           SKY/WX    TMP DP  RH WIND       PRES   REMARKS
$$

SUPPLEMENTAL OBSERVATIONS (NWS NORMAN AREA)

CITY           SKY/WX    TMP DP  RH WIND       PRES   REMARKS
GOODLETT         N/A     33  29  88 NE5       30.12S WCI  28
ODELL            N/A     26  26  99 N2        30.14S
CROWELL          N/A     34  31  90 N7        30.14R WCI  28
KNOX CITY        N/A     30  26  86 CALM      30.13R
SEYMOUR          N/A     33  31  91 NW1       30.13S
$$

SUPPLEMENTAL OBSERVATIONS (NWS SAN ANGELO AREA)

CITY           SKY/WX    TMP DP  RH WIND       PRES   REMARKS
WEINERT          N/A     31  26  81 SW1       30.12R
HASKELL          N/A     36  32  85 S3        30.11S
THROCKMORTON     N/A     35  35  98 E1        30.13R
STAMFORD         N/A     34  29  83 CALM      30.12S
CLYDE            N/A     42  38  85 E7        30.11R WCI  38
$$

SUPPLEMENTAL OBSERVATIONS (NWS SHREVEPORT AREA)

CITY           SKY/WX    TMP DP  RH WIND       PRES   REMARKS
$$

SUPPLEMENTAL OBSERVATIONS ARE A COLLECTION OF AUTOMATED INSTRUMENTS
THAT ARE MAINTAINED BY A VARIETY OF FEDERAL AND STATE AGENCIES.
CERTAIN ELEMENTS...SUCH AS HUMIDITY VALUES AND SUSTAINED WIND
SPEEDS...MAY BE APPROXIMATED.





USA.gov is the U.S. government's official web portal to all federal, state and local government web resources and services.